Regional Weather Roundup
Issued by NWS Bismarck, ND

Home | Current Version | Previous Version | Text Only | Print | Product List | Glossary On
Versions: 1 2 3 4 5 6 7 8 9 10 11 12 13 14 15 16 17 18 19 20 21 22 23 24 25 26 27 28 29 30 31 32 33 34 35 36 37 38 39 40 41 42 43 44 45 46 47 48 49 50
000
ASUS43 KBIS 210410
RWRBIS

NWR BROADCAST TEXT
NATIONAL WEATHER SERVICE BISMARCK ND
1000 PM CST MON FEB 20 2017

NOTE: "FAIR" INDICATES FEW OR NO CLOUDS BELOW 12,000 FEET WITH NO
SIGNIFICANT WEATHER AND/OR OBSTRUCTIONS TO VISIBILITY.


CITY           SKY/WX    TMP DP  RH WIND       PRES   REMARKS
WILLISTON      CLOUDY    36  30  79 N8        29.65F
MINOT          FAIR      36  31  82 SW12      29.69S
MINOT AFB      FAIR      32  28  85 CALM      29.68S
BISMARCK       FAIR      33  30  88 SE6       29.75S
DICKINSON      CLOUDY    39  28  64 E3        29.66F
GARRISON         N/A     34  30  85 CALM      29.70F
HETTINGER ARPT CLOUDY    42  26  53 SE8       29.72F
JAMESTOWN      FAIR      35  32  88 SW6       29.76R
CARRINGTON     FAIR      36  32  87 SW7       29.76S
HAZEN            N/A    N/A N/A N/A CALM      29.72F
MANDAN         FAIR      39  28  65 SE6       29.74F
RUGBY            N/A     30  30 100 S6        29.70F
STANLEY        MOCLDY    32  32 100 CALM      29.70S
TIOGA          MOCLDY    32  32 100 E3        29.69S
WATFORD CITY   FAIR      36  28  75 E8        29.65F
$$

CITY           SKY/WX    TMP DP  RH WIND       PRES   REMARKS
GRAND FORKS    FAIR      32  28  85 SW5       29.72S
GRAND FORKS AF FAIR      30  30  99 SW5       29.72R
DEVILS LAKE    FAIR      33  31  92 W7        29.72R
FARGO          FAIR      33  32  96 S7        29.76S FOG
CAVALIER         N/A     32  32 100 W7        29.70R
GRAFTON        FAIR      32  32 100 CALM      29.72S FOG
GWINNER        FAIR      36  34  93 SW10      29.81R
ROLLA          FAIR      32  32 100 W12       29.69S
$$

CITY           SKY/WX    TMP DP  RH WIND       PRES   REMARKS
ABERDEEN       FAIR      30  28  92 SE6       29.83S
MOBRIDGE       FAIR      37  31  78 SE3       29.76R
BUFFALO          N/A     46  26  45 S9        29.62F
RAPID CITY     FAIR      52  30  43 SW14      29.78S
GLASGOW        MOCLDY    44  38  79 S9        29.59F
SIDNEY         LGT RAIN  41  30  65 S7        29.65S
WOLF POINT     CLOUDY    38  34  85 CALM      29.62F
GLENDIVE       CLOUDY    42  29  59 SW6       29.66R
MILES CITY     FAIR      45  29  53 S8        29.65R
BAKER          FAIR      42  27  55 S3        29.67F
$$

CITY           SKY/WX    TMP DP  RH WIND       PRES   REMARKS
BILLINGS       MOCLDY    48  31  51 W15       29.68R
GREAT FALLS    FAIR      39  32  76 SW15      29.62S
REGINA         CLOUDY    30  30 100 NE5       29.64R
ESTEVAN        CLOUDY    30  28  93 VRB2      29.65F
$$





USA.gov is the U.S. government's official web portal to all federal, state and local government web resources and services.